Location: Newark
(8.3333°N, 39.1667°E)
Time: 08:33:38
(UTC+00:00)

Falcon 9 debris - Pass Details

Date: 03 September 2019
Orbit: 432 x 437 km, 53.0° (Epoch: 23 September)

Event Time Altitude Azimuth Distance (km) Brightness Sun altitude
Exits shadow 01:50:21 22° 163° (SSE) 986 4.9 -21.5°
Maximum altitude 01:51:40 30° 123° (ESE) 808 4.9 -21.1°
Drops below altitude 10° 01:54:44 10° 61° (ENE) 1,531 6.9 -20.4°
Sets 01:56:59 0° 50° (NE) 2,399 7.9 -19.9°
